Cut Bank, MT

8:42 PM MDT on March 28, 2017 (GMT -0600)
Cut Bank Municipal | | Change Station

Elev 3855 ft 48.61 °N, 112.38 °W | Updated 46 minutes ago

Clear
Clear
42 °F
Feels Like 34 °F
N
18
Wind Variable Wind from WSW
Gusts 28 mph

Today
High -- | Low -- °F
--% Chance of Precip.
Yesterday
High -- | Low -- °F
Precip. -- in
Pressure 30.06 in
Visibility 10.0 miles
Clouds Clear
Windchill 34 °F
Dew Point 25 °F
Humidity 51%
Rainfall 0.00 in
Snow Depth Not available.
7:14 AM 7:54 PM
New Moon, 1% visible
METAR KCTB 290156Z AUTO 24016G24KT 10SM CLR 06/M04 A3001 RMK AO2 PK WND 25030/0059 SLP178 T00561039
Pressure 30.06 in
Visibility 10.0 miles
Clouds Clear
Windchill 34 °F
Dew Point 25 °F
Humidity 51%
Rainfall 0.00 in
Snow Depth Not available.
7:14 AM 7:54 PM
New Moon, 1% visible
METAR KCTB 290156Z AUTO 24016G24KT 10SM CLR 06/M04 A3001 RMK AO2 PK WND 25030/0059 SLP178 T00561039

Get Severe Weather Alerts

Thanks for signing up!

Be on the lookout for a verification email in your inbox.

You'll start receiving the daily forecast at 8 AM.

×

10-Day Weather Forecast

Almanac

Astronomy

Mar. 28, 2017 Rise Set
Actual Time
Civil Twilight
Nautical Twilight
Astronomical Twilight
Moon
Length of Visible Light
Length of Day
Tomorrow will be .
, % of the Moon is Illuminated

Today's Extremes

State Highs State Lows

Community

WunderPhotos

Upload Photos

1,962,540 photos uploaded!

WunderBlog® & News

Nearby

Air Quality

  Air Quality AQ Index Pollutant
Not available.

Snow Depth

Station Depth Elevation

Earthquake Activity

City Distance Mag. Time & Date
Minimum magnitude displayed is 2.5.

Earthquake Activity

City Distance Mag. Time & Date
Minimum magnitude displayed is 2.5.

Coastal Water Temperatures

Place Temperature

Stations

Nearby Weather Stations

Station Location Temp. Windchill Dew Point Humidity Wind Precip. Elev Updated Type
                   

Watches & Warnings

There are currently no watches in effect.